Location: Nancy
(31.9435°N, 88.8425°W)
Time: 17:25:59
(UTC+00:00)

X-37B - Visible Passes

Search period start: 22 April 2021 00:00
Search period end: 02 May 2021 00:00
Orbit: 380 x 394 km, 45.0° (Epoch: 07 April)

Date Brightness Start Highest point End Pass type
(mag) Time Alt. Az. Time Alt. Az. Time Alt. Az.
24 Apr 3.6 10:01:51 10° N 10:03:14 12° NNE 10:04:36 10° NE visible
25 Apr 2.7 10:39:08 10° NW 10:41:56 27° NNE 10:44:43 10° E visible
26 Apr 3.4 09:41:07 10° NNW 09:43:23 17° NNE 09:45:37 10° ENE visible
27 Apr 3.8 08:44:42 12° NNE 08:44:45 12° NNE 08:46:10 10° NE visible
27 Apr 1.4 10:18:46 10° NW 10:21:54 53° NNE 10:25:01 10° ESE visible
28 Apr 2.6 09:21:57 19° NNW 09:23:27 28° NNE 09:26:15 10° E visible
29 Apr 0.5 09:59:40 19° WNW 10:01:47 66° SW 10:04:55 10° SE visible
30 Apr 3.4 02:30:42 10° SW 02:30:57 12° SW 02:30:57 12° SW visible
30 Apr 3.0 09:05:30 19° ESE 09:05:30 19° ESE 09:06:33 10° ESE visible
30 Apr 2.6 10:38:10 10° WSW 10:39:45 13° SW 10:41:20 10° SSW visible
01 May 1.2 01:32:39 10° SSW 01:35:37 35° SE 01:37:19 20° E visible
01 May 4.0 03:09:34 10° W 03:09:43 11° W 03:09:43 11° W visible
01 May 3.2 09:44:12 11° SSE 09:44:12 11° SSE 09:44:20 10° SSE visible
